Location: *
(51.2167°N, 10.0667°E)
Time: 08:35:45
(UTC+00:00)

Envisat - Visible Passes

Search period start: 04 March 2021 00:00
Search period end: 14 March 2021 00:00
Orbit: 764 x 766 km, 98.1° (Epoch: 03 March)

Date Brightness Start Highest point End Pass type
(mag) Time Alt. Az. Time Alt. Az. Time Alt. Az.
04 Mar 4.9 04:22:15 10° NNE 04:26:50 33° E 04:31:23 10° SSE visible
05 Mar 5.9 03:46:20 10° NE 03:49:37 17° E 03:52:53 10° SE visible
06 Mar 3.9 04:47:24 10° NNE 04:52:23 53° E 04:57:20 10° S visible
06 Mar 6.6 17:50:14 10° WSW 17:52:04 12° W 17:53:54 10° WNW visible
07 Mar 5.3 04:11:00 10° NE 04:15:19 27° E 04:19:36 10° SSE visible
08 Mar 6.1 03:35:27 10° NE 03:38:01 14° E 03:40:35 10° ESE visible
08 Mar 3.1 05:12:43 10° NNE 05:17:51 84° ESE 05:22:56 10° SSW visible
09 Mar 4.4 04:36:03 10° NNE 04:40:54 43° E 04:45:44 10° S visible
10 Mar 5.6 03:59:49 10° NE 04:03:46 22° E 04:07:42 10° SE visible
11 Mar 6.3 03:25:03 10° ENE 03:26:24 11° E 03:27:46 10° E visible
11 Mar 3.4 05:01:18 10° NNE 05:06:24 69° ESE 05:11:28 10° S visible
12 Mar 4.8 04:24:44 10° NNE 04:29:24 35° E 04:34:03 10° SSE visible
13 Mar 5.9 03:48:43 10° NE 03:52:12 18° E 03:55:40 10° SE visible
